Torna al catalogo

COSMOS 2251 DEB

AttivoLEO
NORAD 34874·DEBRIS·🇷🇺 Russia

Lanciato Jun 16, 1993 da Plesetsk Cosmodrome

Loading…

Prossimi Passaggi (prossime 24 ore)

TLE

AggiornatoSource: Space-Track

Epoca: Sep 13, 2026, 01:49 UTC

1 34874U 93036ACM 26256.07585933  .00000923  00000-0  31206-3 0  9997
2 34874  74.0370 289.3561 0053711 250.9140 137.6000 14.37463715909850

Traccia COSMOS 2251 DEB in tempo reale con AllMySat

Download on the App Store